• Em Portugal
  • Lista de países
  • Para 7 dias
  • Temperatura da água
  • Mapas de satélite
  • Mapa do tempo
  • Widgets de tempo
  • user-avatar
    Iniciar Sessão

    Previsão horária em Jurkow

    Hoje, 18 Julho, Quarta-feira

    Tempo Temperatura Precipitação Vento Pressão Humidade
    00:00 +18°C° 0,2 mm 4 m/s 733 mmHg 94%
    01:00 +18°C° 0 mm 4 m/s 733 mmHg 94%
    02:00 +18°C° 0,2 mm 4 m/s 733 mmHg 93%
    03:00 +17°C° 0,2 mm 5 m/s 733 mmHg 93%
    04:00 +16°C° 0,2 mm 5 m/s 733 mmHg 93%
    05:00 +17°C° 0,4 mm 6 m/s 733 mmHg 92%
    06:00 +17°C° 0,4 mm 6 m/s 733 mmHg 91%
    07:00 +17°C° 0 mm 5 m/s 734 mmHg 90%
    08:00 +19°C° 0,4 mm 6 m/s 734 mmHg 89%
    09:00 +19°C° 0,4 mm 6 m/s 735 mmHg 88%
    10:00 +19°C° 0,4 mm 6 m/s 735 mmHg 87%
    11:00 +20°C° 0,3 mm 6 m/s 735 mmHg 85%
    12:00 +20°C° 0,3 mm 6 m/s 735 mmHg 84%
    13:00 +20°C° 0 mm 5 m/s 736 mmHg 85%
    14:00 +20°C° 0,2 mm 5 m/s 736 mmHg 82%
    15:00 +21°C° 0,2 mm 5 m/s 736 mmHg 79%
    16:00 +21°C° 0,2 mm 5 m/s 736 mmHg 76%
    17:00 +21°C° 0,1 mm 4 m/s 736 mmHg 78%
    18:00 +20°C° 0,1 mm 4 m/s 736 mmHg 80%
    19:00 +20°C° 0,1 mm 3 m/s 736 mmHg 82%
    20:00 +19°C° 0,1 mm 3 m/s 736 mmHg 85%
    21:00 +19°C° 0,1 mm 2 m/s 737 mmHg 88%
    22:00 +18°C° 0,1 mm 2 m/s 737 mmHg 91%
    23:00 +18°C° 0 mm 2 m/s 737 mmHg 92%

    Amanhã, 19 Julho, Quinta-feira

    Tempo Temperatura Precipitação Vento Pressão Humidade
    00:00 +17°C° 0 mm 3 m/s 737 mmHg 93%
    01:00 +17°C° 0 mm 3 m/s 737 mmHg 94%
    02:00 +17°C° 0 mm 3 m/s 737 mmHg 95%
    03:00 +16°C° 0 mm 3 m/s 737 mmHg 95%
    04:00 +15°C° 0 mm 4 m/s 737 mmHg 95%
    05:00 +17°C° 0 mm 4 m/s 737 mmHg 93%
    06:00 +17°C° 0 mm 4 m/s 737 mmHg 90%
    07:00 +17°C° 0 mm 5 m/s 737 mmHg 88%
    08:00 +19°C° 0 mm 5 m/s 737 mmHg 84%
    09:00 +20°C° 0 mm 5 m/s 737 mmHg 81%
    10:00 +20°C° 0 mm 5 m/s 737 mmHg 77%
    11:00 +20°C° 0,2 mm 5 m/s 737 mmHg 78%
    12:00 +20°C° 0,2 mm 5 m/s 737 mmHg 80%
    13:00 +20°C° 0,2 mm 5 m/s 737 mmHg 81%
    14:00 +20°C° 0,1 mm 5 m/s 737 mmHg 80%
    15:00 +20°C° 0,1 mm 5 m/s 737 mmHg 79%
    16:00 +21°C° 0,1 mm 5 m/s 737 mmHg 78%
    17:00 +21°C° 0 mm 4 m/s 737 mmHg 79%
    18:00 +20°C° 0 mm 3 m/s 737 mmHg 80%
    19:00 +20°C° 0 mm 3 m/s 737 mmHg 80%
    20:00 +19°C° 0 mm 2 m/s 737 mmHg 83%
    21:00 +18°C° 0 mm 2 m/s 738 mmHg 86%
    22:00 +17°C° 0 mm 2 m/s 738 mmHg 89%
    23:00 +17°C° 0 mm 2 m/s 738 mmHg 89%

    Depois de amanhã, 20 Julho, Sexta-feira

    Tempo Temperatura Precipitação Vento Pressão Humidade
    00:00 +17°C° 0 mm 2 m/s 738 mmHg 89%
    01:00 +16°C° 0 mm 2 m/s 738 mmHg 89%
    02:00 +16°C° 0 mm 2 m/s 738 mmHg 90%
    03:00 +15°C° 0 mm 2 m/s 738 mmHg 90%
    04:00 +15°C° 0 mm 2 m/s 737 mmHg 91%
    05:00 +16°C° 0 mm 2 m/s 738 mmHg 84%
    06:00 +17°C° 0 mm 2 m/s 738 mmHg 78%
    07:00 +18°C° 0 mm 3 m/s 738 mmHg 71%
    08:00 +20°C° 0 mm 3 m/s 738 mmHg 63%
    09:00 +21°C° 0 mm 3 m/s 738 mmHg 55%
    10:00 +24°C° 0 mm 3 m/s 738 mmHg 47%
    11:00 +25°C° 0 mm 3 m/s 738 mmHg 44%
    12:00 +26°C° 0 mm 3 m/s 738 mmHg 41%
    13:00 +26°C° 0 mm 3 m/s 737 mmHg 38%
    14:00 +27°C° 0 mm 3 m/s 737 mmHg 38%
    15:00 +27°C° 0 mm 2 m/s 737 mmHg 38%
    16:00 +27°C° 0 mm 2 m/s 736 mmHg 37%
    17:00 +26°C° 0 mm 2 m/s 736 mmHg 43%
    18:00 +24°C° 0 mm 1 m/s 736 mmHg 49%
    19:00 +23°C° 0 mm 1 m/s 736 mmHg 55%
    20:00 +21°C° 0 mm 1 m/s 736 mmHg 58%
    21:00 +20°C° 0 mm 1 m/s 736 mmHg 61%
    22:00 +18°C° 0 mm 1 m/s 736 mmHg 64%
    23:00 +18°C° 0 mm 1 m/s 736 mmHg 65%

    21 Julho, Sábado

    Tempo Temperatura Precipitação Vento Pressão Humidade
    00:00 +16°C° 0 mm 1 m/s 736 mmHg 66%
    01:00 +16°C° 0 mm 1 m/s 736 mmHg 67%
    02:00 +16°C° 0 mm 1 m/s 736 mmHg 68%
    03:00 +16°C° 0 mm 1 m/s 736 mmHg 68%
    04:00 +15°C° 0 mm 1 m/s 735 mmHg 69%
    05:00 +18°C° 0 mm 1 m/s 736 mmHg 65%
    06:00 +20°C° 0 mm 1 m/s 736 mmHg 61%
    07:00 +20°C° 0 mm 0 m/s 736 mmHg 58%
    08:00 +23°C° 0 mm 1 m/s 736 mmHg 53%
    09:00 +25°C° 0 mm 1 m/s 736 mmHg 49%
    10:00 +27°C° 0 mm 1 m/s 736 mmHg 44%
    11:00 +27°C° 0 mm 1 m/s 736 mmHg 42%
    12:00 +28°C° 0 mm 1 m/s 736 mmHg 41%
    13:00 +29°C° 0 mm 1 m/s 735 mmHg 39%
    14:00 +29°C° 0 mm 1 m/s 735 mmHg 40%
    15:00 +28°C° 0 mm 1 m/s 735 mmHg 41%
    16:00 +28°C° 0 mm 1 m/s 735 mmHg 42%
    17:00 +27°C° 0 mm 1 m/s 735 mmHg 47%
    18:00 +25°C° 0 mm 1 m/s 734 mmHg 52%
    19:00 +24°C° 0 mm 1 m/s 734 mmHg 57%
    20:00 +23°C° 0 mm 1 m/s 734 mmHg 60%
    21:00 +22°C° 0 mm 1 m/s 734 mmHg 63%
    22:00 +21°C° 0 mm 1 m/s 735 mmHg 65%
    23:00 +20°C° 0 mm 1 m/s 734 mmHg 68%

    22 Julho, Domingo

    Tempo Temperatura Precipitação Vento Pressão Humidade
    00:00 +19°C° 0 mm 1 m/s 734 mmHg 71%
    01:00 +19°C° 0 mm 1 m/s 734 mmHg 73%
    02:00 +19°C° 0 mm 1 m/s 734 mmHg 74%
    03:00 +19°C° 0 mm 1 m/s 734 mmHg 74%
    04:00 +18°C° 0 mm 1 m/s 734 mmHg 74%
    05:00 +19°C° 0 mm 1 m/s 734 mmHg 72%
    06:00 +20°C° 0 mm 1 m/s 734 mmHg 70%
    07:00 +21°C° 0 mm 1 m/s 735 mmHg 67%
    08:00 +23°C° 0,1 mm 1 m/s 735 mmHg 63%
    09:00 +24°C° 0,1 mm 1 m/s 735 mmHg 59%
    10:00 +25°C° 0,1 mm 1 m/s 735 mmHg 55%
    11:00 +26°C° 0,3 mm 2 m/s 735 mmHg 53%
    12:00 +27°C° 0,3 mm 2 m/s 735 mmHg 50%
    13:00 +27°C° 0,3 mm 2 m/s 735 mmHg 48%
    14:00 +27°C° 0,2 mm 2 m/s 734 mmHg 48%
    15:00 +27°C° 0,2 mm 3 m/s 734 mmHg 47%
    16:00 +27°C° 0,2 mm 3 m/s 734 mmHg 47%
    17:00 +26°C° 0,1 mm 3 m/s 735 mmHg 52%
    18:00 +25°C° 0,1 mm 2 m/s 735 mmHg 57%
    19:00 +24°C° 0,1 mm 2 m/s 735 mmHg 62%
    20:00 +21°C° 0 mm 2 m/s 735 mmHg 64%
    21:00 +21°C° 0 mm 1 m/s 735 mmHg 66%
    22:00 +20°C° 0 mm 1 m/s 736 mmHg 69%
    23:00 +19°C° 0 mm 1 m/s 736 mmHg 70%

    23 Julho, Segunda-feira

    Tempo Temperatura Precipitação Vento Pressão Humidade
    00:00 +19°C° 0 mm 1 m/s 736 mmHg 71%
    01:00 +18°C° 0 mm 1 m/s 736 mmHg 72%
    02:00 +18°C° 0 mm 1 m/s 736 mmHg 74%
    03:00 +16°C° 0 mm 1 m/s 736 mmHg 76%
    04:00 +16°C° 0 mm 1 m/s 737 mmHg 78%
    05:00 +18°C° 0 mm 1 m/s 737 mmHg 75%
    06:00 +20°C° 0 mm 1 m/s 737 mmHg 73%
    07:00 +20°C° 0 mm 2 m/s 738 mmHg 70%
    08:00 +21°C° 0,1 mm 2 m/s 738 mmHg 65%
    09:00 +24°C° 0,1 mm 3 m/s 738 mmHg 61%
    10:00 +25°C° 0,1 mm 3 m/s 738 mmHg 56%
    11:00 +26°C° 0,1 mm 3 m/s 738 mmHg 54%
    12:00 +26°C° 0,1 mm 3 m/s 738 mmHg 52%
    13:00 +27°C° 0,1 mm 3 m/s 738 mmHg 50%
    14:00 +27°C° 0 mm 3 m/s 738 mmHg 49%
    15:00 +27°C° 0 mm 3 m/s 738 mmHg 48%
    16:00 +27°C° 0 mm 3 m/s 737 mmHg 47%
    17:00 +26°C° 0 mm 3 m/s 738 mmHg 52%
    18:00 +25°C° 0 mm 2 m/s 738 mmHg 57%
    19:00 +24°C° 0 mm 1 m/s 738 mmHg 62%
    20:00 +22°C° 0 mm 1 m/s 738 mmHg 66%
    21:00 +21°C° 0 mm 1 m/s 738 mmHg 69%
    22:00 +20°C° 0 mm 1 m/s 738 mmHg 73%
    23:00 +19°C° 0 mm 1 m/s 738 mmHg 75%
    Mostrar mais